Epoch,demod_status_bits,ebno,lock_status,signal_level,viterbi_ber
1664469284,C;S;V;F,12.1,0x00c000,-39.6,9.84e-6
1664469285,C;S;V;F,12.3,0x00c000,-39.2,3.78e-6
1664469286,C;S;V;F,11.0,0x00c000,-40.4,8.16e-6
1664469287,C;S;V;F,10.3,0x00c000,-40.9,2.42e-5
1664469288,C;S;V;F,10.0,0x00c000,-41.2,9.85e-5
1664469289,C;S;V;F,10.3,0x00c000,-41.0,1.11e-4
1664469290,C;S;V;F,11.1,0x00c000,-40.1,5.15e-5
1664469291,C;S;V;F,11.7,0x00c000,-39.8,
1664469292,,11.2,0x00c000,-40.1,1.69e-5
1664469293,C;S;V;F,11.0,0x00c000,-40.6,1.64e-5
1664469294,C;S;V;F,,0x00c000,-40.9,2.39e-5
1664469295,C;S;V;F,10.4,0x00c000,-40.0,6.40e-5
1664469296,C;S;V;F,10.8,0x00c000,,5.89e-5
1664469297,C;S;V;F,11.8,0x00c000,-39.7,1.45e-5
1664469298,C;S;V;F,11.4,0x00c000,-39.9,6.35e-6
1664469299,C;S;V;F,10.7,0x00c000,-40.5,1.88e-5
1664469300,C;S;V;F,10.8,0x00c000,-40.6,3.79e-5
1664469301,C;S;V;F,11.3,0x00c000,-40.1,3.81e-5
1664469302,C;S;V;F,12.1,0x00c000,-39.6,1.91e-5
1664469303,C;S;V;F,12.1,0x00c000,-39.6,3.47e-6
1664469304,C;S;V;F,11.5,0x00c000,-39.9,5.44e-6
1664469305,C;S;V;F,11.1,0x00c000,-40.4,1.34e-5
1664469306,C;S;V;F,11.2,0x00c000,-40.3,
1664469307,,11.8,0x00c000,-39.8,2.01e-5
1664469308,C;S;V;F,12.0,0x00c000,-39.6,1.54e-5
1664469309,C;S;V;F,11.7,0x00c000,-39.9,7.10e-6
1664469310,C;S;V;F,11.6,0x00c000,-40.0,4.53e-6
1664469311,C;S;V;F,,0x00c000,,8.01e-6
1664469312,C;S;V;F,11.5,0x00c000,-39.8,1.22e-5
1664469313,C;S;V;F,11.5,0x00c000,-39.7,1.04e-5
1664469314,C;S;V;F,12.0,0x00c000,-39.4,5.44e-6
1664469315,C;S;V;F,12.2,0x00c000,-39.3,3.32e-6
1664469316,C;S;V;F,11.9,0x00c000,-39.4,
1664469317,C;S;V;F,12.0,0x00c000,-39.4,2.87e-6
1664469318,,12.0,0x00c000,-39.6,4.23e-6
1664469319,C;S;V;F,12.2,0x00c000,-39.2,3.32e-6
1664469320,C;S;V;F,12.7,0x00c000,-38.8,2.72e-6
1664469321,C;S;V;F,12.6,0x00c000,-38.7,1.05e-6
1664469322,C;S;V;F,,0x00c000,-39.1,3.03e-7
1664469323,C;S;V;F,12.6,0x00c000,,1.05e-6
1664469324,C;S;V;F,12.5,0x00c000,-39.1,1.05e-6
1664469325,C;S;V;F,12.8,0x00c000,-38.8,4.54e-7
1664469326,C;S;V;F,13.0,0x00c000,-38.8,4.54e-7
1664469327,C;S;V;F,13.1,0x00c000,-38.5,1.51e-7
1664469328,C;S;V;F,13.1,0x00c000,-38.7,1.51e-7
1664469329,C;S;V;F,12.9,0x00c000,-38.7,1.51e-7
1664469330,C;S;V;F,12.9,0x00c000,-38.6,0.00e-0
1664469331,C;S;V;F,13.3,0x00c000,-38.4,0.00e-0
1664469332,C;S;V;F,13.1,0x00c000,-38.6,0.00e-0
1664469333,C;S;V;F,13.1,0x00c000,-38.5,3.03e-7
1664469334,C;S;V;F,13.2,0x00c000,-38.7,3.03e-7
1664469336,C;S;V;F,13.0,0x00c000,-38.2,
1664469337,,13.7,0x00c000,-37.9,4.54e-7
1664469338,C;S;V;F,13.8,0x00c000,-38.0,0.00e-0
1664469339,C;S;V;F,,0x00c000,,0.00e-0
1664469342,C;S;V;F,13.8,0x00c000,-38.0,0.00e-0
1664469343,C;S;V;F,13.9,0x00c000,-37.6,0.00e-0
1664469344,C;S;V;F,13.9,0x00c000,-37.8,0.00e-0
1664469345,C;S;V;F,13.7,0x00c000,-37.8,0.00e-0
1664469346,C;S;V;F,13.9,0x00c000,-37.8,0.00e-0
1664469347,C;S;V;F,13.6,0x00c000,-38.0,0.00e-0
1664469348,C;S;V;F,13.7,0x00c000,-37.9,0.00e-0
1664469349,C;S;V;F,14.2,0x00c000,-37.4,0.00e-0
1664469350,C;S;V;F,14.4,0x00c000,-37.5,0.00e-0
1664469351,C;S;V;F,14.2,0x00c000,-37.9,
1664469352,,13.8,0x00c000,-38.0,0.00e-0
1664469353,C;S;V;F,13.5,0x00c000,-38.2,0.00e-0
1664469354,C;S;V;F,13.6,0x00c000,-38.1,0.00e-0
1664469355,C;S;V;F,,0x00c000,-38.0,0.00e-0
1664469356,C;S;V;F,13.5,0x00c000,,0.00e-0
1664469357,C;S;V;F,14.1,0x00c000,-37.9,0.00e-0
1664469358,C;S;V;F,13.8,0x00c000,-38.0,0.00e-0
1664469359,C;S;V;F,14.0,0x00c000,-37.6,0.00e-0
1664469360,C;S;V;F,14.0,0x00c000,-37.7,0.00e-0
1664469361,C;S;V;F,14.1,0x00c000,-37.6,0.00e-0
1664469362,C;S;V;F,14.0,0x00c000,-37.4,0.00e-0
1664469363,C;S;V;F,14.5,0x00c000,-37.2,0.00e-0
1664469364,C;S;V;F,14.4,0x00c000,-37.4,0.00e-0
1664469365,C;S;V;F,14.2,0x00c000,-37.5,0.00e-0
1664469366,C;S;V;F,14.0,0x00c000,-37.8,
1664469367,,13.8,0x00c000,-38.0,0.00e-0
1664469368,C;S;V;F,13.8,0x00c000,-37.8,0.00e-0
1664469369,C;S;V;F,,0x00c000,-37.6,0.00e-0
1664469370,C;S;V;F,14.1,0x00c000,,0.00e-0
1664469371,C;S;V;F,14.2,0x00c000,-37.4,0.00e-0
1664469372,C;S;V;F,13.9,0x00c000,-37.7,0.00e-0
1664469373,C;S;V;F,13.6,0x00c000,-38.2,0.00e-0
1664469374,C;S;V;F,13.9,0x00c000,-37.8,0.00e-0
1664469375,C;S;V;F,14.2,0x00c000,-37.5,0.00e-0
1664469376,C;S;V;F,14.2,0x00c000,-37.6,0.00e-0
1664469377,C;S;V;F,14.1,0x00c000,-37.7,0.00e-0
1664469378,C;S;V;F,14.0,0x00c000,-37.8,0.00e-0
1664469379,C;S;V;F,14.0,0x00c000,-37.6,0.00e-0
1664469380,C;S;V;F,14.1,0x00c000,-37.6,0.00e-0
1664469381,C;S;V;F,14.0,0x00c000,-37.6,0.00e-0
1664469382,C;S;V;F,14.1,0x00c000,-37.4,0.00e-0
1664469383,C;S;V;F,14.3,0x00c000,-37.3,0.00e-0
1664469384,C;S;V;F,14.3,0x00c000,-37.1,0.00e-0
1664469385,C;S;V;F,14.6,0x00c000,-37.2,
1664469386,,14.7,0x00c000,-37.0,0.00e-0
1664469387,C;S;V;F,14.6,0x00c000,-37.1,0.00e-0
1664469388,C;S;V;F,14.6,0x00c000,-37.2,0.00e-0
1664469389,C;S;V;F,,0x00c000,-37.3,0.00e-0
1664469390,C;S;V;F,14.4,0x00c000,-37.6,0.00e-0
1664469391,C;S;V;F,14.3,0x00c000,-37.6,0.00e-0
1664469392,C;S;V;F,14.0,0x00c000,,0.00e-0
1664469393,C;S;V;F,13.9,0x00c000,-37.9,0.00e-0
1664469394,C;S;V;F,13.7,0x00c000,-38.0,0.00e-0
1664469395,C;S;V;F,13.7,0x00c000,-38.0,0.00e-0
1664469396,C;S;V;F,13.7,0x00c000,-37.9,0.00e-0
1664469397,C;S;V;F,13.8,0x00c000,-37.8,0.00e-0
1664469399,C;S;V;F,14.0,0x00c000,-37.9,0.00e-0
1664469400,C;S;V;F,13.6,0x00c000,-38.0,0.00e-0
1664469401,C;S;V;F,13.7,0x00c000,-37.9,0.00e-0
1664469402,C;S;V;F,13.7,0x00c000,-38.0,
1664469403,,13.7,0x00c000,-37.9,0.00e-0
1664469404,C;S;V;F,,0x00c000,-38.0,0.00e-0
1664469405,C;S;V;F,13.6,0x00c000,-38.2,0.00e-0
1664469406,C;S;V;F,13.7,0x00c000,-38.2,0.00e-0
1664469407,C;S;V;F,13.6,0x00c000,,0.00e-0
1664469408,C;S;V;F,13.8,0x00c000,-38.0,0.00e-0
1664469409,C;S;V;F,13.4,0x00c000,-38.4,0.00e-0
1664469410,C;S;V;F,13.4,0x00c000,-38.0,0.00e-0
1664469411,C;S;V;F,13.3,0x00c000,-38.4,0.00e-0
1664469412,C;S;V;F,13.4,0x00c000,-38.6,0.00e-0
1664469413,C;S;V;F,13.1,0x00c000,-38.6,0.00e-0
1664469414,C;S;V;F,13.3,0x00c000,-38.7,1.51e-7
1664469415,C;S;V;F,13.0,0x00c000,-38.7,
1664469416,,13.0,0x00c000,-38.5,0.00e-0
1664469417,C;S;V;F,13.1,0x00c000,-38.9,0.00e-0
1664469418,C;S;V;F,12.7,0x00c000,-39.1,0.00e-0
1664469419,C;S;V;F,12.6,0x00c000,-39.2,3.03e-7
1664469420,C;S;V;F,,0x00c000,-39.6,1.21e-6
1664469421,C;S;V;F,12.2,0x00c000,-39.3,1.51e-6
1664469422,C;S;V;F,12.4,0x00c000,,1.96e-6
1664469423,C;S;V;F,12.6,0x00c000,-39.2,1.21e-6
1664469424,C;S;V;F,12.8,0x00c000,-38.9,9.09e-7
1664469425,C;S;V;F,12.9,0x00c000,-38.8,4.54e-7
1664469426,C;S;V;F,12.9,0x00c000,-38.8,1.51e-7
1664469427,C;S;V;F,12.9,0x00c000,-38.8,4.54e-7
1664469428,C;S;V;F,12.8,0x00c000,-38.6,4.54e-7
1664469429,C;S;V;F,12.9,0x00c000,-38.8,1.51e-7
1664469430,C;S;V;F,12.8,0x00c000,-38.8,3.03e-7
1664469431,C;S;V;F,12.6,0x00c000,-38.9,4.54e-7
1664469432,C;S;V;F,12.7,0x00c000,-38.8,3.03e-7
1664469433,C;S;V;F,12.9,0x00c000,-38.7,
1664469434,,12.9,0x00c000,-38.8,4.54e-7
1664469435,C;S;V;F,12.8,0x00c000,-38.8,1.51e-7
1664469436,C;S;V;F,13.2,0x00c000,-38.4,4.54e-7
1664469437,C;S;V;F,13.1,0x00c000,-38.3,3.03e-7
1664469438,C;S;V;F,,0x00c000,-38.8,0.00e-0
1664469439,C;S;V;F,12.9,0x00c000,-38.9,0.00e-0
1664469440,C;S;V;F,12.8,0x00c000,,3.03e-7
1664469441,C;S;V;F,12.5,0x00c000,-38.9,6.06e-7
1664469442,C;S;V;F,12.7,0x00c000,-38.8,7.57e-7
1664469443,C;S;V;F,13.0,0x00c000,-38.8,3.03e-7
1664469444,C;S;V;F,13.0,0x00c000,-38.7,1.51e-7
1664469445,C;S;V;F,13.1,0x00c000,-38.6,3.03e-7
1664469446,C;S;V;F,12.9,0x00c000,-38.4,1.51e-7
1664469447,C;S;V;F,13.3,0x00c000,-38.4,0.00e-0
1664469448,C;S;V;F,13.3,0x00c000,-38.3,0.00e-0
1664469449,C;S;V;F,13.3,0x00c000,-38.5,0.00e-0
1664469450,C;S;V;F,13.4,0x00c000,-38.6,0.00e-0
1664469451,C;S;V;F,13.0,0x00c000,-38.6,0.00e-0
1664469452,,12.9,0x00c000,-38.9,
1664469453,C;S;V;F,12.9,0x00c000,-38.6,3.03e-7
1664469454,C;S;V;F,13.0,0x00c000,-38.8,6.06e-7
1664469455,C;S;V;F,12.6,0x00c000,-38.9,4.54e-7
1664469456,C;S;V;F,,0x00c000,-38.9,1.51e-7
1664469457,C;S;V;F,12.7,0x00c000,,3.03e-7
1664469458,C;S;V;F,12.8,0x00c000,-38.7,3.03e-7
1664469459,C;S;V;F,12.6,0x00c000,-39.0,3.03e-7
1664469460,C;S;V;F,12.3,0x00c000,-39.3,1.81e-6
1664469463,C;S;V;F,12.7,0x00c000,-38.9,6.06e-7
1664469464,C;S;V;F,12.6,0x00c000,-39.1,7.57e-7
1664469465,C;S;V;F,12.5,0x00c000,-38.9,6.06e-7
1664469466,C;S;V;F,12.6,0x00c000,-39.0,7.57e-7
1664469467,C;S;V;F,12.8,0x00c000,-38.8,7.57e-7
1664469468,C;S;V;F,13.3,0x00c000,-38.3,3.03e-7
1664469469,C;S;V;F,13.1,0x00c000,-38.8,0.00e-0
1664469470,C;S;V;F,12.9,0x00c000,-38.7,
1664469471,,13.0,0x00c000,-38.9,0.00e-0
1664469472,C;S;V;F,12.6,0x00c000,-39.1,3.03e-7
1664469473,C;S;V;F,12.4,0x00c000,-39.4,6.06e-7
1664469474,C;S;V;F,,0x00c000,-39.1,1.66e-6
1664469475,C;S;V;F,12.2,0x00c000,-39.1,2.87e-6
1664469476,C;S;V;F,12.5,0x00c000,,2.11e-6
1664469477,C;S;V;F,12.3,0x00c000,-39.0,1.36e-6
1664469478,C;S;V;F,12.5,0x00c000,-39.1,2.42e-6
1664469479,C;S;V;F,12.3,0x00c000,-39.2,2.42e-6
1664469480,C;S;V;F,12.2,0x00c000,-39.2,2.57e-6
1664469481,C;S;V;F,11.6,0x00c000,-39.8,4.84e-6
1664469482,C;S;V;F,11.9,0x00c000,-39.6,6.65e-6
1664469483,C;S;V;F,12.1,0x00c000,-39.2,3.32e-6
1664469484,C;S;V;F,12.6,0x00c000,-38.9,1.51e-6
1664469485,C;S;V;F,12.7,0x00c000,-38.8,7.57e-7
1664469486,,12.8,0x00c000,-38.7,
1664469487,C;S;V;F,13.2,0x00c000,-38.4,3.03e-7
1664469488,C;S;V;F,13.0,0x00c000,-38.3,0.00e-0
1664469489,C;S;V;F,13.3,0x00c000,-38.6,0.00e-0
1664469490,C;S;V;F,13.1,0x00c000,-38.6,1.51e-7
1664469491,C;S;V;F,,0x00c000,-38.8,1.51e-7
1664469492,C;S;V;F,12.9,0x00c000,-38.6,0.00e-0
1664469493,C;S;V;F,12.8,0x00c000,-38.4,1.51e-7
1664469494,C;S;V;F,13.1,0x00c000,,1.51e-7
1664469495,C;S;V;F,13.5,0x00c000,-38.1,0.00e-0
1664469496,C;S;V;F,13.4,0x00c000,-38.1,0.00e-0
1664469497,C;S;V;F,13.1,0x00c000,-38.5,0.00e-0
1664469498,C;S;V;F,13.1,0x00c000,-38.4,0.00e-0
1664469499,C;S;V;F,13.8,0x00c000,-37.7,0.00e-0
1664469500,C;S;V;F,13.6,0x00c000,-38.0,0.00e-0
1664469501,C;S;V;F,13.6,0x00c000,-37.9,0.00e-0
1664469502,C;S;V;F,13.6,0x00c000,-37.9,0.00e-0
1664469503,C;S;V;F,13.2,0x00c000,-38.2,0.00e-0
1664469504,C;S;V;F,12.8,0x00c000,-38.5,
1664469505,,12.6,0x00c000,-39.0,1.51e-7
1664469506,C;S;V;F,13.2,0x00c000,-38.3,7.57e-7
1664469507,C;S;V;F,12.7,0x00c000,-38.5,7.57e-7
1664469508,C;S;V;F,12.7,0x00c000,-38.3,1.51e-7
1664469509,C;S;V;F,,0x00c000,-38.1,4.54e-7
1664469510,C;S;V;F,13.3,0x00c000,-37.7,0.00e-0
1664469511,C;S;V;F,13.7,0x00c000,-37.4,0.00e-0
1664469512,C;S;V;F,13.8,0x00c000,,0.00e-0
1664469513,C;S;V;F,14.6,0x00c000,-37.2,0.00e-0
1664469514,,0.0,0xc0504d,-37.5,
1664469515,-;-;-;-,,,,-1e-7
